Terminal Aerodrome Forecast
Issued by NWS Aberdeen, SD

Home | Current Version | Previous Version | Text Only | Print | Product List | Glossary On
Versions: 1 2 3 4 5 6 7 8 9 10 11 12 13 14 15 16 17 18 19 20 21 22 23 24 25 26 27 28 29 30 31 32 33 34 35 36 37 38 39 40 41 42 43 44 45 46 47 48 49 50
000
FTAK31 PAFA 291202 AAA
TAFABR
TAF AMD
PABR 291202Z 2912/3012 24024KT 6SM -SN BLSN BKN010 OVC015
     FM291500 25022G32KT P6SM BKN025 OVC120
     FM291800 24015KT P6SM SCT025 BKN060 OVC120=

USA.gov is the U.S. government's official web portal to all federal, state and local government web resources and services.